Regional Weather Roundup
Issued by NWS

Home | Current Version | Previous Version | Graphics & Text | Print | Product List | Glossary On
Versions: 1 2 3 4 5 6 7 8 9 10 11 12 13 14 15 16 17 18 19 20 21 22 23 24 25 26 27 28 29 30 31 32 33 34 35 36 37 38 39 40 41 42 43 44 45 46 47 48 49 50
000
ASUS43 KMPX 240810
RWRMN
WEATHER ROUNDUP FOR MINNESOTA
NATIONAL WEATHER SERVICE TWIN CITIES/CHANHASSEN MN
200 AM CST MON NOV 24 2014


NOTE: "FAIR" INDICATES FEW OR NO CLOUDS BELOW 12,000 FEET WITH NO
SIGNIFICANT WEATHER AND/OR OBSTRUCTIONS TO VISIBILITY. N/A MEANS
CURRENT SKY AND/OR WEATHER CONDITIONS ARE NOT AVAILABLE.

MNZ060>063-068>070-240900-
   Twin Cities Metro

CITY           SKY/WX    TMP DP  RH WIND       PRES   REMARKS
TWIN CITIES    CLOUDY    31  28  89 NW14      29.31S WCI  21
ST PAUL        CLOUDY    32  29  88 NW15      29.31S WCI  22
CRYSTAL        CLOUDY    33  27  78 NW15G23   29.30F WCI  23
BLAINE         CLOUDY    34  32  93 NW15      29.30S WCI  24
LAKEVILLE      MIX PCPN  28  27  93 W15       29.30S WCI  17
EDEN PRAIRIE   CLOUDY    32  26  78 NW14G23   29.30F WCI  22
SOUTH ST PAUL  LGT SNOW  32  31  93 NW10      29.30S WCI  24
LAKE ELMO      LGT SNOW  32  32 100 NW13      29.29S WCI  22
$$
MNZ001>005-007-008-013>017-022>024-027-028-240900-
   Northwest Minnesota

CITY           SKY/WX    TMP DP  RH WIND       PRES   REMARKS
BEMIDJI        LGT SNOW  18  17  94 NW17      29.42S WCI   3
HALLOCK        FLURRIES  12   9  85 NW18G28   29.61S WCI  -5
ROSEAU         CLOUDY    18  12  79 NW15G22   29.51R WCI   3
WARROAD        CLOUDY    18  14  86 NW13G18   29.49R WCI   4
THIEF RVR FALL CLOUDY    14  10  85 NW18      29.52S WCI  -3
CROOKSTON      LGT SNOW  14  10  85 N24       29.58S WCI  -5
FOSSTON        LGT SNOW  12  10  92 NW14G21   29.49F WCI  -3
DETROIT LAKES  LGT SNOW  16  14  93 NW21G26   29.49S WCI  -2
MOORHEAD       LGT SNOW  16  16 100 NW16G22   29.57S WCI   0
PARK RAPIDS    CLOUDY    18  15  88 NW16      29.41F WCI   3
MAHNOMEN       LGT SNOW  15  12  89 NW15      29.50S WCI  -1
$$
MNZ006-009>011-018-025>026-240900-
   North Central Minnesota

CITY           SKY/WX    TMP DP  RH WIND       PRES   REMARKS
BAUDETTE       CLOUDY    25  23  92 NW22G28   29.41S FOG     WCI  10
FLAG ISLAND    CLOUDY    19  18  93 N21       29.48R WCI   3
INTL FALLS     CLOUDY    33  31  92 NW9       29.34S FOG     WCI  25
WASKISH        MIX PCPN  23  21  93 NW5G17    29.42R WCI  17
BIG FORK       MIX PCPN  27  27 100 W7        29.35S WCI  19
LONGVILLE      CLOUDY    21  19  93 NW10G21   29.38S WCI  10
GRAND RAPIDS   CLOUDY    27  25  93 NW16G23   29.33S WCI  14
CRANE LAKE     LGT SNOW  32  30  93 NW6       29.32S WCI  26
ORR            MIX PCPN  32  30  93 NW5       29.28S WCI  27
COOK           LGT SNOW  32  32 100 NW6       29.29F WCI  26
WALKER         CLOUDY    18  16  92 NW9G17    29.41S WCI   7
$$
MNZ012-019>021-037-240900-
   Northeast Minnesota

CITY           SKY/WX    TMP DP  RH WIND       PRES   REMARKS
DULUTH         LGT SNOW  34  30  86 NW15      29.23F FOG     WCI  24
ELY            LGT SNOW  32  32 100 NW6       29.26S WCI  26
HIBBING        CLOUDY    34  30  85 NW14      29.28S WCI  25
EVELETH        MIX PCPN  34  32  93 N9G18     29.27F WCI  26
DULUTH HARBOR  DRIZZLE   37  34  87 NW3       29.26F
TWO HARBORS    DRIZZLE   37  34  87 NW6       29.20S
SILVER BAY     DRIZZLE   37  34  87 NW3       29.19S
GRAND MARAIS     N/A     41  35  79 N16G29    29.15F
G MARAIS ARPRT FLURRIES  34  30  86 N9G18     29.17F WCI  26
$$
MNZ029>031-032-039>041-046>048-054>057-064-240900-
   West Central Minnesota

CITY           SKY/WX    TMP DP  RH WIND       PRES   REMARKS
FERGUS FALLS   CLOUDY    16  10  79 N24G30    29.54S WCI  -3
WHEATON        FLURRIES  16  10  79 NW24G30   29.57R WCI  -3
MORRIS           N/A     18  16  93 NW23G29   29.48S WCI   0
ALEXANDRIA     CLOUDY    19  15  84 NW18G26   29.43S WCI   4
ELBOW LAKE       N/A     17  13  86 NW24G30   29.48S WCI  -2
WADENA         CLOUDY    18  14  86 NW16G23   29.42F WCI   3
GLENWOOD       CLEAR     19  18  93 NW17G26   29.43S WCI   4
APPLETON       CLOUDY    19  16  86 NW25      29.51S WCI   2
BENSON         CLOUDY    19  16  86 N23G31    29.47S WCI   2
ORTONVILLE     FLURRIES  18  12  79 NW18G26   29.52S WCI   2
MADISON        CLEAR     25  18  74 NW23G30   29.52S WCI  10
WILLMAR        CLOUDY    23  19  86 NW26      29.44S WCI   6
$$
MNZ033>034-036-042>043-049>051-058-059-240900-
   Central Minnesota

CITY           SKY/WX    TMP DP  RH WIND       PRES   REMARKS
ST CLOUD       CLOUDY    29  23  78 NW22      29.34S WCI  15
SAUK CENTRE    CLOUDY    21  17  86 NW18G26   29.40F WCI   6
PAYNESVILLE    CLOUDY    21  19  90 W21G30    29.40S WCI   5
AITKIN         CLOUDY    30  25  80 NW9       29.32S WCI  22
PINE RIVER     CLOUDY    21  19  93 NW10G16   29.43S WCI  10
BRAINERD       CLOUDY    25  21  85 NW20G26   29.37R WCI  11
STAPLES        CLOUDY    19  18  93 NW17      29.40F WCI   4
LONG PRAIRIE   CLOUDY    19  18  93 NW21G26   29.40S WCI   3
LITTLE FALLS   CLOUDY    25  19  80 NW17G23   29.38S WCI  11
LITCHFIELD     CLOUDY    27  25  93 NW17G26   29.38S WCI  14
BUFFALO        CLOUDY    31  25  80 NW12      29.35S WCI  22
MAPLE LAKE     CLOUDY    32  28  84 NW14G21   29.35S WCI  22
$$
MNZ037-044-045-052-053-240900-
   East Central Minnesota

CITY           SKY/WX    TMP DP  RH WIND       PRES   REMARKS
PRINCETON      CLOUDY    34  28  80 W14G20    29.32F WCI  24
MORA           CLOUDY    32  30  93 NW15G21   29.30F WCI  22
CAMBRIDGE      CLOUDY    34  27  75 W10       29.28F WCI  26
RUSH CITY      FLURRIES  32  31  96 NW10G18   29.28F WCI  24
MOOSE LAKE     RAIN      34  32  93 NW8       29.25F WCI  27
HINCKLEY       RAIN      34  34 100 NW12G18   29.27F WCI  25
CLOQUET        LGT SNOW  34  32  93 NW10G17   29.25F WCI  26
MCGREGOR       CLOUDY    32  30  93 NW12G17   29.31S WCI  23
$$
MNZ071>073-080-081-089-090-097-098-240900-
   Southwest Minnesota

CITY           SKY/WX    TMP DP  RH WIND       PRES   REMARKS
MONTEVIDEO     CLOUDY    19  16  86 N23G32    29.49S WCI   2
GRANITE FALLS  CLOUDY    22  19  90 NW26G32   29.49S WCI   4
CANBY          CLOUDY    21  16  79 NW20G28   29.52S WCI   6
MARSHALL       CLOUDY    21  12  68 N24G35    29.48S WCI   4
REDWOOD FALLS  CLOUDY    23  18  81 NW23G32   29.44S WCI   7
OLIVIA         CLOUDY    23  21  93 NW23G33   29.43R WCI   7
PIPESTONE      CLOUDY    19  14  79 NW15G35   29.47S WCI   5
WINDOM         CLOUDY    23  21  93 NW23G30   29.42S WCI   7
WORTHINGTON    CLOUDY    23  18  80 NW23G29   29.45S WCI   7
JACKSON        CLOUDY    25  21  86 NW23G36   29.41F WCI  10
TRACY          CLOUDY    22  19  87 NW23G32   29.47S WCI   6
SLAYTON        CLOUDY    21  18  88 NW22G29   29.45F WCI   5
$$
MNZ065>067-074>077-082>085-091>093-240900-
   South Central Minnesota

CITY           SKY/WX    TMP DP  RH WIND       PRES   REMARKS
MANKATO        CLOUDY    28  21  74 NW22G31   29.35F WCI  15
NEW ULM        CLOUDY    25  23  93 NW29G36   29.38F WCI   8
ST JAMES       CLOUDY    27  23  86 NW28G38   29.40F WCI  11
FAIRMONT       CLOUDY    25  19  80 NW25G33   29.39S WCI   9
GLENCOE        CLOUDY    31  28  88 NW20      29.35S WCI  19
FARIBAULT      CLOUDY    30  27  86 W15G24    29.31F WCI  19
OWATONNA       FLURRIES  30  27  86 NW20G26   29.32S WCI  18
WASECA         CLOUDY    30  25  80 NW20G30   29.35R WCI  18
ALBERT LEA     CLOUDY    28  27  93 NW18G29   29.31S WCI  16
$$
MNZ078>079-086>088-094>096-240900-
   Southeast Minnesota

CITY           SKY/WX    TMP DP  RH WIND       PRES   REMARKS
ROCHESTER      MIX PCPN  31  29  92 NW25G33   29.24F FOG     WCI  17
RED WING         N/A     34  30  86 NW9       29.26S WCI  26
STANTON        LGT SNOW  32  29  90 NW15G21   29.29S WCI  21
DODGE CENTER   LGT SNOW  30  30 100 NW15G24   29.27S WCI  19
WINONA         DRIZZLE   37  36  93 NW14G21   29.21S
AUSTIN         LGT SNOW  28  27  93 NW17G32   29.28S WCI  16
PRESTON        LGT SNOW  31  30  96 NW17G24   29.23R VSB 1   WCI  20
$$
ABBREVIATIONS USED IN REMARKS
   TC - TEMPERATURES IN CELSIUS
  WCI - WIND CHILL INDEX
   HX - HEAT INDEX
  VSB - VISIBILITY
$$


USA.gov is the U.S. government's official web portal to all federal, state and local government web resources and services.